Location: Goettingen
(51.5300°N, 9.9433°E)
Time: 14:44:30
(UTC+01:00)

ISS - Pass Details

Date: 19 January 2021
Orbit: 418 x 421 km, 51.6° (Epoch: 24 January)

Event Time Altitude Azimuth Distance (km) Brightness Sun altitude
Rises 19:26:51 0° 221° (SW) 2,362 0.7 -24.2°
Reaches altitude 10° 19:29:06 10° 209° (SSW) 1,502 -0.6 -24.6°
Enters shadow 19:29:49 14° 202° (SSW) 1,260 -1.1 -24.7°
